Location: Barcelona
(41.3829°N, 2.1774°E)
Time: 19:31:15
(UTC+00:00)

ISS - Pass Details

Date: 14 October 2025
Orbit: 414 x 421 km, 51.6° (Epoch: 07 November)

Event Time Altitude Azimuth Distance (km) Brightness Sun altitude
Rises 05:00:22 0° 193° (SSW) 2,347 -0.1 -12.4°
Reaches altitude 10° 05:03:00 10° 171° (S) 1,491 -0.8 -11.9°
Maximum altitude 05:05:08 16° 131° (SE) 1,182 -0.8 -11.5°
Drops below altitude 10° 05:07:18 10° 91° (E) 1,502 0.7 -11.1°
Sets 05:09:58 0° 69° (ENE) 2,373 1.5 -10.6°
